Location: Newark
(37.9800°N, 91.3000°W)
Time: 11:45:38
(UTC+00:00)

NOAA 19 - Pass Details

Date: 12 December 2019
Orbit: 840 x 862 km, 99.2° (Epoch: 17 January)

Event Time Altitude Azimuth Distance (km) Brightness Sun altitude
Rises 00:24:31 0° 215° (SW) 3,418 9.1 -18.8°
Reaches altitude 10° 00:28:16 10° 241° (WSW) 2,491 8.8 -19.5°
Maximum altitude 00:30:51 13° 269° (W) 2,265 8.5 -20.0°
Drops below altitude 10° 00:33:26 10° 297° (WNW) 2,502 8.3 -20.5°
Sets 00:37:15 0° 324° (NW) 3,446 8.7 -21.3°
